Location: Oshawa
(43.9000°N, 78.8670°W)
Time: 22:36:20
(UTC-04:00)

Amateur Radio Satellites - All Passes

Search period start: 01 August 2014 22:06
Search period end: 02 August 2014 22:06
Location: Oshawa, 43.9000°N, 78.8670°W

Satellite Date Start Highest point End Downlink Frequencies (MHz)
Time Altitude Azimuth
Oscar 11 01 Aug 22:17:25 22:21:43 79° 257° (WSW) 22:26:03 145.825 FM, Beacon 2401.500 USB
HO-68 01 Aug 22:21:34 22:28:10 39° 262° (W) 22:34:48 435.675 MHz FM
RS-15 01 Aug 22:23:17 22:34:23 89° 57° (ENE) 22:45:52 29.354 - 29.394 USB, Beacon 29.352 USB
UOSAT-12 01 Aug 22:41:17 22:46:03 87° 56° (NE) 22:50:44 437.025 FM, 437.400 FM
FUNcube-1 01 Aug 22:50:28 22:54:45 88° 77° (ENE) 22:58:59 145.950 - 145.970 MHz USB
ISS 01 Aug 22:51:48 22:55:05 58° 143° (SE) 22:58:23 145.800 FM
UKube-1 01 Aug 23:16:56 23:17:45 10° 271° (W) 23:18:34 145.840 MHz, 145.915 MHz
PCSat 01 Aug 23:18:19 23:21:56 19° 105° (ESE) 23:25:34 145.825 MHz
UOSAT-12 02 Aug 00:23:44 00:25:29 12° 253° (WSW) 00:27:13 437.025 FM, 437.400 FM
Sapphire 02 Aug 00:26:28 00:31:47 64° 117° (ESE) 00:37:10 437.095 MHz 1200 baud AX-25 AFSK
ISS 02 Aug 00:28:56 00:31:58 31° 342° (NNW) 00:35:00 145.800 FM
RS-15 02 Aug 00:37:05 00:45:19 25° 258° (WSW) 00:53:49 29.354 - 29.394 USB, Beacon 29.352 USB
Oscar 10/S400 02 Aug 00:49:12 01:20:23 60° 180° (S) 10:06:58 145.825 - 145.975 CW/USB, Beacon 145.810 USB
PCSat 02 Aug 00:59:24 01:04:47 68° 303° (WNW) 01:10:13 145.825 MHz
AO-40 02 Aug 01:36:06 03:41:33 18° 122° (ESE) 04:49:02 Beacon 2401.320
Uribyol 2 02 Aug 02:03:28 02:05:09 11° 88° (E) 02:06:49 436.500 FM
AO-27 02 Aug 02:05:28 02:07:12 12° 88° (E) 02:08:56 436.795 MHz FM
ISS 02 Aug 02:06:44 02:09:23 21° 3° (N) 02:12:03 145.800 FM
AO-Echo 02 Aug 02:07:36 02:09:34 12° 87° (E) 02:11:29 ?
Sapphire 02 Aug 02:11:19 02:15:40 24° 317° (NW) 02:20:03 437.095 MHz 1200 baud AX-25 AFSK
Oscar 19 02 Aug 02:22:52 02:27:41 38° 97° (E) 02:32:28 437.125 CW, 437.150 USB
OPAL 02 Aug 02:44:58 02:47:01 13° 54° (NE) 02:49:03 ?
PCSat 02 Aug 02:46:10 02:49:16 15° 325° (NW) 02:52:22 145.825 MHz
Gurwin Techsat 1B 02 Aug 02:51:24 02:54:05 14° 88° (E) 02:56:45 435.225 FM
Oscar 16 02 Aug 02:51:49 02:57:00 72° 103° (ESE) 03:02:10 437.025 USB, Beacon 2401.1428
JAS-1B 02 Aug 02:52:04 02:59:53 31° 89° (E) 03:06:40 435.800 - 435.900 CW/SSB
ITAMSAT 1 02 Aug 03:21:50 03:26:58 60° 101° (ESE) 03:32:03 435.822 SSB
Uribyol 2 02 Aug 03:40:07 03:45:19 88° 284° (WNW) 03:50:29 436.500 FM
AO-27 02 Aug 03:42:12 03:47:25 88° 285° (WNW) 03:52:36 436.795 MHz FM
ISS 02 Aug 03:43:31 03:46:43 40° 22° (NNE) 03:49:55 145.800 FM
AO-Echo 02 Aug 03:43:58 03:49:01 80° 285° (WNW) 03:53:51 ?
TMSAT-1 02 Aug 04:02:10 04:07:14 45° 99° (E) 04:12:17 436.925 FM
Oscar 19 02 Aug 04:02:28 04:06:53 29° 295° (WNW) 04:11:19 437.125 CW, 437.150 USB
Uosat F 02 Aug 04:09:26 04:10:13 10° 87° (E) 04:11:01 435.120 FM
OPAL 02 Aug 04:20:11 04:25:07 85° 73° (ENE) 04:30:07 ?
MaSat-1 02 Aug 04:27:06 04:30:00 15° 41° (NE) 04:32:52 437.345 MHz
Gurwin Techsat 1B 02 Aug 04:29:20 04:34:40 79° 286° (WNW) 04:39:58 435.225 FM
AO-7 02 Aug 04:30:52 04:37:23 25° 92° (E) 04:43:50 29.400 - 29.500 MHz
Oscar 16 02 Aug 04:32:35 04:35:46 17° 300° (WNW) 04:38:58 437.025 USB, Beacon 2401.1428
KITSAT 1 02 Aug 04:38:30 04:44:14 22° 103° (ESE) 04:49:57 435.175 FM
JAS-1B 02 Aug 04:41:55 04:51:05 65° 292° (WNW) 04:58:51 435.800 - 435.900 CW/SSB
ITAMSAT 1 02 Aug 05:02:22 05:06:00 20° 299° (WNW) 05:09:37 435.822 SSB
ISS 02 Aug 05:20:19 05:23:25 35° 220° (SW) 05:26:31 145.800 FM
Uribyol 2 02 Aug 05:21:40 05:24:02 13° 303° (WNW) 05:26:23 436.500 FM
AO-27 02 Aug 05:23:47 05:26:10 13° 303° (WNW) 05:28:33 436.795 MHz FM
AO-Echo 02 Aug 05:25:27 05:26:53 11° 304° (NW) 05:28:18 ?
TMSAT-1 02 Aug 05:42:36 05:46:55 26° 296° (WNW) 05:51:13 436.925 FM
Uosat F 02 Aug 05:44:41 05:49:44 88° 105° (ESE) 05:54:44 435.120 FM
MaSat-1 02 Aug 06:03:00 06:08:19 72° 61° (ENE) 06:13:16 437.345 MHz
OPAL 02 Aug 06:03:05 06:04:40 11° 270° (W) 06:06:15 ?
Gurwin Techsat 1B 02 Aug 06:11:46 06:13:46 12° 304° (NW) 06:15:46 435.225 FM
AO-7 02 Aug 06:22:37 06:30:56 76° 292° (WNW) 06:39:11 29.400 - 29.500 MHz
KITSAT 1 02 Aug 06:30:31 06:38:38 86° 302° (WNW) 06:46:48 435.175 FM
JAS-1B 02 Aug 06:34:06 06:39:37 18° 315° (NW) 06:44:46 435.800 - 435.900 CW/SSB
Hamsat 02 Aug 06:48:18 06:52:18 36° 97° (E) 06:56:18 145.90 MHz
STRAND 1 02 Aug 06:50:36 06:55:39 61° 72° (ENE) 07:00:44 ?
JAS-2 02 Aug 06:51:39 06:56:42 31° 94° (E) 07:01:22 435.800 - 435.900 CW/SSB, 435.910 FM
Saudisat 1A 02 Aug 07:16:44 07:21:09 80° 123° (ESE) 07:25:36 436.775 MHz
SO-67 02 Aug 07:21:57 07:22:35 10° 90° (E) 07:23:14 435.3500 MHz FM
Uosat F 02 Aug 07:25:28 07:27:48 13° 303° (WNW) 07:30:07 435.120 FM
Sapphire 02 Aug 07:30:54 07:34:03 15° 35° (NE) 07:37:11 437.095 MHz 1200 baud AX-25 AFSK
MaSat-1 02 Aug 07:41:47 07:44:56 16° 260° (W) 07:47:58 437.345 MHz
PCSat 02 Aug 08:03:11 08:07:36 25° 44° (NE) 08:12:00 145.825 MHz
AO-7 02 Aug 08:16:56 08:22:25 20° 313° (NW) 08:27:53 29.400 - 29.500 MHz
Hamsat 02 Aug 08:24:42 08:28:04 23° 294° (WNW) 08:31:27 145.90 MHz
KITSAT 1 02 Aug 08:28:33 08:35:13 27° 326° (NW) 08:41:55 435.175 FM
STRAND 1 02 Aug 08:31:54 08:35:16 17° 269° (W) 08:38:38 ?
JAS-2 02 Aug 08:36:38 08:41:54 36° 295° (WNW) 08:46:44 435.800 - 435.900 CW/SSB, 435.910 FM
SO-67 02 Aug 08:52:35 08:55:57 48° 286° (WNW) 08:59:18 435.3500 MHz FM
Saudisat 1A 02 Aug 08:58:18 09:01:17 18° 323° (NW) 09:04:18 436.775 MHz
Sapphire 02 Aug 09:13:05 09:18:31 69° 57° (ENE) 09:23:54 437.095 MHz 1200 baud AX-25 AFSK
UKube-1 02 Aug 09:25:54 09:27:23 12° 90° (E) 09:28:53 145.840 MHz, 145.915 MHz
PCSat 02 Aug 09:46:05 09:51:28 63° 244° (WSW) 09:56:48 145.825 MHz
HO-68 02 Aug 09:47:07 09:53:43 39° 98° (E) 10:00:16 435.675 MHz FM
Oscar 11 02 Aug 10:04:43 10:07:36 17° 92° (E) 10:10:29 145.825 FM, Beacon 2401.500 USB
KITSAT 1 02 Aug 10:29:48 10:34:00 15° 355° (N) 10:38:11 435.175 FM
FUNcube-1 02 Aug 10:39:29 10:41:53 15° 91° (E) 10:44:17 145.950 - 145.970 MHz USB
Sapphire 02 Aug 10:57:46 11:01:21 18° 255° (WSW) 11:04:57 437.095 MHz 1200 baud AX-25 AFSK
UKube-1 02 Aug 10:59:44 11:04:04 69° 286° (WNW) 11:08:23 145.840 MHz, 145.915 MHz
SO-50 02 Aug 11:20:12 11:23:55 26° 114° (ESE) 11:27:43 436.795 FM
HO-68 02 Aug 11:34:48 11:41:28 45° 296° (WNW) 11:48:08 435.675 MHz FM
Oscar 11 02 Aug 11:39:52 11:44:02 46° 288° (WNW) 11:48:11 145.825 FM, Beacon 2401.500 USB
FUNcube-1 02 Aug 12:14:31 12:18:35 50° 287° (WNW) 12:22:42 145.950 - 145.970 MHz USB
KITSAT 1 02 Aug 12:27:16 12:33:09 21° 26° (NNE) 12:39:00 435.175 FM
Oscar 16 02 Aug 12:33:23 12:36:36 17° 60° (ENE) 12:39:50 437.025 USB, Beacon 2401.1428
RS-15 02 Aug 12:48:18 12:58:50 51° 112° (ESE) 13:09:09 29.354 - 29.394 USB, Beacon 29.352 USB
UOSAT-12 02 Aug 12:55:08 12:58:19 19° 111° (ESE) 13:01:34 437.025 FM, 437.400 FM
SO-50 02 Aug 13:00:05 13:04:18 39° 313° (NW) 13:08:38 436.795 FM
ITAMSAT 1 02 Aug 13:04:40 13:07:37 16° 58° (ENE) 13:10:34 435.822 SSB
AO-Echo 02 Aug 13:20:41 13:24:40 22° 63° (ENE) 13:28:38 ?
Uribyol 2 02 Aug 13:21:39 13:25:35 23° 62° (ENE) 13:29:32 436.500 FM
AO-27 02 Aug 13:23:55 13:27:54 23° 62° (ENE) 13:31:54 436.795 MHz FM
JAS-1B 02 Aug 13:36:04 13:44:14 35° 57° (ENE) 13:52:46 435.800 - 435.900 CW/SSB
Oscar 19 02 Aug 13:41:05 13:46:07 62° 72° (ENE) 13:51:11 437.125 CW, 437.150 USB
AO-7 02 Aug 13:47:00 13:48:12 10° 36° (NE) 13:49:23 29.400 - 29.500 MHz
TMSAT-1 02 Aug 13:48:30 13:50:30 12° 56° (NE) 13:52:30 436.925 FM
Saudisat 1A 02 Aug 14:03:43 14:06:33 17° 36° (NE) 14:09:23 436.775 MHz
Oscar 16 02 Aug 14:10:18 14:15:24 70° 258° (WSW) 14:20:32 437.025 USB, Beacon 2401.1428
Gurwin Techsat 1B 02 Aug 14:13:14 14:17:35 27° 64° (ENE) 14:21:57 435.225 FM
KITSAT 1 02 Aug 14:22:24 14:30:24 60° 52° (NE) 14:38:21 435.175 FM
UOSAT-12 02 Aug 14:33:29 14:38:02 57° 309° (NW) 14:42:42 437.025 FM, 437.400 FM
ITAMSAT 1 02 Aug 14:41:14 14:46:27 80° 256° (WSW) 14:51:41 435.822 SSB
AO-Echo 02 Aug 14:57:49 15:03:02 56° 260° (W) 15:08:15 ?
Uribyol 2 02 Aug 14:59:40 15:04:43 52° 260° (W) 15:09:47 436.500 FM
RS-15 02 Aug 15:00:24 15:11:09 54° 316° (NW) 15:21:50 29.354 - 29.394 USB, Beacon 29.352 USB
AO-27 02 Aug 15:02:00 15:07:05 51° 260° (W) 15:12:10 436.795 MHz FM
Uosat F 02 Aug 15:22:31 15:26:02 19° 61° (ENE) 15:29:33 435.120 FM
Oscar 19 02 Aug 15:22:38 15:25:54 17° 269° (W) 15:29:11 437.125 CW, 437.150 USB
TMSAT-1 02 Aug 15:24:15 15:29:33 79° 74° (ENE) 15:34:52 436.925 FM
JAS-1B 02 Aug 15:24:43 15:33:54 72° 258° (WSW) 15:43:53 435.800 - 435.900 CW/SSB
AO-7 02 Aug 15:31:06 15:38:41 41° 59° (ENE) 15:46:17 29.400 - 29.500 MHz
Saudisat 1A 02 Aug 15:42:19 15:46:45 87° 236° (WSW) 15:51:09 436.775 MHz
Gurwin Techsat 1B 02 Aug 15:52:16 15:57:19 44° 262° (W) 16:02:25 435.225 FM
UOSAT-12 02 Aug 16:17:02 16:19:13 13° 330° (NNW) 16:21:25 437.025 FM, 437.400 FM
KITSAT 1 02 Aug 16:18:21 16:25:24 35° 252° (WSW) 16:32:25 435.175 FM
OPAL 02 Aug 16:29:25 16:33:06 20° 95° (E) 16:36:47 ?
Uosat F 02 Aug 16:59:25 17:04:23 59° 259° (WSW) 17:09:22 435.120 FM
JAS-2 02 Aug 17:04:44 17:10:19 23° 60° (ENE) 17:15:33 435.800 - 435.900 CW/SSB, 435.910 FM
TMSAT-1 02 Aug 17:07:27 17:10:05 14° 272° (W) 17:12:44 436.925 FM
RS-15 02 Aug 17:17:58 17:26:43 26° 348° (NNW) 17:35:31 29.354 - 29.394 USB, Beacon 29.352 USB
JAS-1B 02 Aug 17:20:32 17:26:06 17° 279° (W) 17:31:54 435.800 - 435.900 CW/SSB
AO-7 02 Aug 17:23:12 17:31:16 52° 259° (WSW) 17:39:24 29.400 - 29.500 MHz
Hamsat 02 Aug 17:43:15 17:46:55 30° 69° (ENE) 17:50:37 145.90 MHz
OPAL 02 Aug 18:07:19 18:12:18 55° 291° (WNW) 18:17:19 ?
SO-50 02 Aug 18:11:45 18:12:17 10° 26° (NNE) 18:12:48 436.795 FM
JAS-2 02 Aug 18:47:00 18:54:44 81° 256° (WSW) 19:01:48 435.800 - 435.900 CW/SSB, 435.910 FM
STRAND 1 02 Aug 19:00:54 19:04:23 18° 91° (E) 19:07:51 ?
Hamsat 02 Aug 19:19:29 19:22:54 24° 266° (W) 19:26:22 145.90 MHz
SO-67 02 Aug 19:26:42 19:30:07 64° 76° (ENE) 19:33:35 435.3500 MHz FM
RS-15 02 Aug 19:34:20 19:43:43 31° 23° (NNE) 19:53:14 29.354 - 29.394 USB, Beacon 29.352 USB
SO-50 02 Aug 19:49:40 19:54:08 40° 48° (NE) 19:58:40 436.795 FM
MaSat-1 02 Aug 19:56:00 19:59:19 23° 103° (ESE) 20:03:01 437.345 MHz
HO-68 02 Aug 20:17:23 20:23:41 35° 61° (ENE) 20:30:00 435.675 MHz FM
UKube-1 02 Aug 20:22:50 20:25:03 14° 61° (ENE) 20:27:17 145.840 MHz, 145.915 MHz
JAS-2 02 Aug 20:36:17 20:40:32 16° 273° (W) 20:44:38 435.800 - 435.900 CW/SSB, 435.910 FM
STRAND 1 02 Aug 20:38:57 20:43:57 57° 289° (WNW) 20:48:55 ?
Oscar 11 02 Aug 21:01:38 21:04:26 17° 63° (ENE) 21:07:15 145.825 FM, Beacon 2401.500 USB
UOSAT-12 02 Aug 21:22:05 21:26:12 28° 43° (NE) 21:30:17 437.025 FM, 437.400 FM
SO-50 02 Aug 21:30:28 21:34:36 30° 245° (WSW) 21:38:46 436.795 FM
MaSat-1 02 Aug 21:32:07 21:36:15 42° 305° (NW) 21:40:58 437.345 MHz
FUNcube-1 02 Aug 21:37:56 21:40:24 15° 63° (ENE) 21:42:52 145.950 - 145.970 MHz USB
UKube-1 02 Aug 21:56:24 22:00:44 67° 258° (WSW) 22:05:06 145.840 MHz, 145.915 MHz
